Regional Weather Roundup
Issued by NWS Midland/Odessa, TX

Skip options and go directly to product.
Home | Oldest Version | Previous Version | Current Version | All | Graphics & Text | Save Text | Print | Product List | Glossary On

Skip product version selection by date and time.   
641
ASUS44 KMAF 280310
RWRMAF
MIDLAND AREA WEATHER ROUNDUP
NATIONAL WEATHER SERVICE MIDLAND TX
1000 PM CDT WED AUG 27 2014

...IN SOUTHWEST TEXAS AND SOUTHEAST NEW MEXICO...

CITY           SKY/WX    TMP DP  RH WIND       PRES   REMARKS
ALPINE         MOCLDY    78  54  42 CALM      30.22R
ANDREWS        FAIR      86  56  35 SE9       30.07R
ARTESIA        NOT AVBL
BIG SPRING     CLOUDY    88  57  35 E7        30.06R
CARLSBAD       PTCLDY    78  62  57 W3        30.06S
DRYDEN           N/A     93  60  33 SE8       29.99R
FORT STOCKTON  PTCLDY    83  53  35 SW6       30.05R
GUAD PASS      MOCLDY    74  56  53 SW10      30.26R
HOBBS          CLOUDY    79  59  50 N5        30.11R
MARFA          CLOUDY    75  55  50 N8        30.21S
MIDLAND AIRPK  PTCLDY    87  59  39 SE10      30.05R
MIDLAND INTL   MOCLDY    86  61  42 SE17      30.04R
ODESSA         PTCLDY    88  57  34 SE14      30.05R
PECOS          CLOUDY    88  57  35 W7        30.02R
PRESIDIO       FAIR      88  56  32 N8        30.01R
SEMINOLE       MOCLDY    82  56  41 CALM      30.09R
SNYDER         PTCLDY    87  60  40 SE7       30.04R
WINK           MOCLDY    91  55  29 NW5       30.02R
$$
...OTHER STATIONS IN TEXAS...

CITY           SKY/WX    TMP DP  RH WIND       PRES   REMARKS
ABILENE        CLEAR     87  61  41 SE12      30.02R
AMARILLO       MOCLDY    71  66  84 SE15      30.11R
AUSTIN         CLEAR     84  59  42 SE6       29.96R
BROWNSVILLE    CLEAR     83  77  82 N7        29.89R
CORPUS CHRISTI PTCLDY    84  75  74 E16       29.92R
DALLAS FTW     CLEAR     83  63  50 SE8       29.99R
DEL RIO        CLEAR     92  62  36 E8        29.93R
EL PASO        MOCLDY    74  59  59 N17G30    30.15R THUNDER
HOUSTON INT    PTCLDY    77  73  88 E6        29.97R
LUBBOCK        CLOUDY    75  64  68 E9        30.10R
SAN ANGELO     CLEAR     84  61  45 SE6       30.00R
SAN ANTONIO    CLEAR     87  60  40 SE10      29.96R
WACO           CLEAR     82  57  42 E3        29.97R
WICHITA FALLS  NOT AVBL
$$
...OTHER LOCATIONS IN NEW MEXICO...

CITY           SKY/WX    TMP DP  RH WIND       PRES   REMARKS
ALAMAGORDO     MOCLDY    73  63  68 SW3       30.15R
ALBUQUERQUE    PTCLDY    75  50  41 S5        30.22R
CANNON AFB     CLEAR     74  57  55 S7        30.14R
CLOVIS           N/A     73  54  49 SW8       30.16R
HOLLOMAN AFB   MOCLDY    75  61  62 CALM      30.13R
ROSWELL        PTCLDY    76  60  57 S7        30.09R
RUIDOSO        MOCLDY    63  57  82 S8        30.35R
SANTA FE       CLEAR     59  46  62 NW7       30.27R
TRUTH OR CONSE CLOUDY    73  59  61 SW7       30.21R
TUCUMCARI      CLEAR     77  57  50 SW9       30.08R
$$

USA.gov is the U.S. government's official web portal to all federal, state and local government web resources and services.